Weather History for KOLS - March, 2014

Change the Weather History Date:

Sunday, March 2, 2014

  Actual Average (KTUS) Record (KTUS)
Temperature  
Mean Temperature 52 °F 58 °F  
Max Temperature 62 °F 71 °F 91 °F (1910)
Min Temperature 42 °F 44 °F 24 °F (1971)
Degree Days  
Heating Degree Days 13 8  
Month to date heating degree days 16  
Since 1 July heating degree days 1283  
Cooling Degree Days 0 0  
Month to date cooling degree days 0  
Year to date cooling degree days 4  
Growing Degree Days 2 (Base 50)    
Moisture  
Dew Point 41 °F    
Average Humidity 73    
Maximum Humidity 96    
Minimum Humidity 29    
Precipitation  
Precipitation 0.08 in 0.02 in 0.68 in (1981)
Month to date precipitation 0.05  
Year to date precipitation 1.85  
Sea Level Pressure  
Sea Level Pressure 30.01 in    
Wind  
Wind Speed 4 mph (West)    
Max Wind Speed 9 mph    
Max Gust Speed 18 mph    
Visibility 10 miles    
Events Rain    
T = Trace of Precipitation, MM = Missing Value Source: NWS Daily Summary

Daily Weather History Graph

Daily Weather History Graph

Search for Another Location

Airport or City:

Trip Planner

Search our weather history database for the weather conditions in past years. The results will help you decide how hot, cold, wet, or windy it might be!

Date:

Astronomy

Mar. 02, 2014 Rise Set
Actual Time 6:49 AM MST 6:22 PM MST
Civil Twilight 6:24 AM MST 6:46 PM MST
Nautical Twilight 5:56 AM MST 7:14 PM MST
Astronomical Twilight 5:28 AM MST 7:43 PM MST
Moon 7:30 AM MST (3/2) 8:12 PM MST (3/2)
Length of Visible Light 12h 22m
Length of Day
11h 33m
Waxing Crescent, 3% of the Moon is Illuminated
Mar 2
Waxing Crescent
Mar 8
First Quarter
Mar 16
Full
Mar 23
Last Quarter
Mar 30
New

Hourly Weather History & Observations

Time (MST) Temp. Windchill Dew Point Humidity Pressure Visibility Wind Dir Wind Speed Gust Speed Precip Events Conditions
12:02 AM 48.0 °F - 43.0 °F 83% 30.00 in 10.0 mi Calm Calm - N/A   Partly Cloudy
12:39 AM 48.9 °F - 45.0 °F 86% 30.00 in 8.0 mi SSW 3.5 mph - 0.00 in Rain Light Rain
12:54 AM 48.0 °F - 45.0 °F 89% 29.92 in 6.0 mi Calm Calm - 0.01 in Rain Light Rain
1:36 AM 48.0 °F - 45.0 °F 89% 30.00 in 10.0 mi South 6.9 mph - 0.02 in   Overcast
1:43 AM 48.0 °F - 45.0 °F 89% 30.01 in 10.0 mi South 6.9 mph - 0.02 in   Overcast
1:54 AM 48.0 °F - 45.0 °F 89% 29.94 in 10.0 mi South 5.8 mph - 0.02 in   Overcast
2:32 AM 48.9 °F - 45.0 °F 86% 30.02 in 10.0 mi SW 9.2 mph - N/A   Mostly Cloudy
2:39 AM 48.9 °F - 45.0 °F 86% 30.03 in 10.0 mi SW 6.9 mph - N/A   Mostly Cloudy
2:47 AM 48.0 °F - 45.0 °F 89% 30.03 in 9.0 mi West 3.5 mph - N/A   Overcast
2:54 AM 48.0 °F - 46.0 °F 93% 29.95 in 7.0 mi West 3.5 mph - 0.00 in Rain Light Rain
3:06 AM 48.0 °F - 45.0 °F 89% 30.04 in 6.0 mi SW 4.6 mph - 0.02 in Rain Light Rain
3:24 AM 45.0 °F 41.2 °F 42.1 °F 90% 30.05 in 10.0 mi NNW 6.9 mph 18.4 mph 0.02 in Rain Light Rain
3:54 AM 45.0 °F 40.1 °F 41.0 °F 86% 29.99 in 10.0 mi NNW 9.2 mph 16.1 mph 0.02 in   Overcast
4:21 AM 44.1 °F 40.1 °F 42.1 °F 93% 30.06 in 8.0 mi NNE 6.9 mph - 0.02 in Rain Light Rain
4:54 AM 45.0 °F 40.6 °F 42.1 °F 90% 29.99 in 10.0 mi ENE 8.1 mph - 0.03 in Rain Light Rain
5:54 AM 44.1 °F 39.5 °F 42.1 °F 93% 30.00 in 10.0 mi SSE 8.1 mph - 0.00 in   Overcast
6:54 AM 42.1 °F 38.4 °F 41.0 °F 96% 30.04 in 10.0 mi South 5.8 mph - N/A   Partly Cloudy
7:54 AM 46.0 °F 43.9 °F 42.1 °F 86% 30.05 in 10.0 mi SSE 4.6 mph - N/A   Clear
8:54 AM 48.9 °F - 43.0 °F 80% 30.07 in 10.0 mi Calm Calm - N/A   Clear
9:54 AM 53.1 °F - 41.0 °F 64% 30.07 in 10.0 mi NNE 3.5 mph - N/A   Clear
10:54 AM 54.0 °F - 39.0 °F 57% 30.06 in 10.0 mi Variable 3.5 mph - N/A   Clear
11:54 AM 57.9 °F - 37.9 °F 47% 30.05 in 10.0 mi NNW 4.6 mph - N/A   Partly Cloudy
12:54 PM 59.0 °F - 37.9 °F 46% 30.02 in 10.0 mi Variable 5.8 mph - N/A   Clear
1:54 PM 60.1 °F - 34.0 °F 38% 30.00 in 10.0 mi WNW 4.6 mph - N/A   Clear
2:54 PM 62.1 °F - 30.9 °F 31% 29.98 in 10.0 mi Variable 3.5 mph - N/A   Clear
3:54 PM 61.0 °F - 28.0 °F 29% 29.97 in 10.0 mi Calm Calm - N/A   Clear
4:54 PM 61.0 °F - 30.9 °F 32% 29.97 in 10.0 mi North 4.6 mph - N/A   Clear
5:54 PM 59.0 °F - 36.0 °F 42% 29.97 in 10.0 mi WNW 4.6 mph - N/A   Clear
6:54 PM 55.9 °F - 37.9 °F 51% 30.01 in 10.0 mi NW 4.6 mph - N/A   Clear
7:54 PM 55.0 °F - 39.0 °F 55% 30.02 in 10.0 mi Calm Calm - N/A   Partly Cloudy
8:54 PM 53.1 °F - 41.0 °F 64% 30.02 in 10.0 mi WNW 3.5 mph - N/A   Clear
9:54 PM 51.1 °F - 42.1 °F 71% 30.04 in 10.0 mi NNW 3.5 mph - N/A   Partly Cloudy
10:54 PM 48.9 °F - 43.0 °F 80% 30.05 in 10.0 mi Calm Calm - N/A   Clear
11:54 PM 48.9 °F - 43.0 °F 80% 30.02 in 10.0 mi Calm Calm - N/A   Clear